Location: Helion Bumpstead
(52.0500°N, 0.4000°E)
Time: 00:09:10
(UTC+00:00)

Cosmos 1802 Rocket - Visible Passes

Search period start: 11 February 2026 00:00
Search period end: 21 February 2026 00:00
Orbit: 954 x 1010 km, 82.9° (Epoch: 10 February)

Date Brightness Start Highest point End Pass type
(mag) Time Alt. Az. Time Alt. Az. Time Alt. Az.
11 Feb 6.1 05:43:16 10° SE 05:48:26 29° E 05:53:40 10° NNE visible
11 Feb 4.9 18:17:52 10° NNW 18:24:04 55° W 18:30:18 10° SSW visible
11 Feb 7.3 20:06:46 10° WNW 20:08:10 11° WNW 20:09:34 10° W visible
12 Feb 5.2 06:09:33 10° SSE 06:15:27 48° E 06:21:27 10° NNE visible
12 Feb 5.9 18:45:33 10° NNW 18:51:09 33° W 18:56:45 10° SSW visible
13 Feb 6.9 04:54:30 10° ESE 04:58:09 16° ENE 05:01:50 10° NE visible
13 Feb 4.2 06:36:27 10° S 06:42:38 80° E 06:48:58 10° NNE visible
13 Feb 6.7 19:13:36 10° NW 19:18:02 20° WNW 19:22:28 10° WSW visible
14 Feb 6.2 05:19:51 10° SE 05:24:58 28° E 05:30:09 10° NNE visible
14 Feb 4.9 17:54:20 10° NNW 18:00:36 57° W 18:06:51 10° S visible
14 Feb 7.3 19:42:50 10° NW 19:44:44 11° WNW 19:46:37 10° W visible
15 Feb 5.2 05:46:05 10° SSE 05:51:57 46° E 05:57:56 10° NNE visible
15 Feb 5.9 18:22:00 10° NNW 18:27:41 35° W 18:33:22 10° SSW visible
16 Feb 6.9 04:31:12 10° ESE 04:34:42 16° ENE 04:38:14 10° NE visible
16 Feb 4.3 06:12:56 10° S 06:19:08 77° E 06:25:29 10° NNE visible
16 Feb 6.7 18:50:01 10° NNW 18:54:35 21° W 18:59:09 10° SW visible
17 Feb 6.2 04:56:27 10° SE 05:01:29 27° E 05:06:36 10° NNE visible
17 Feb 7.2 19:19:02 10° NW 19:21:18 12° WNW 19:23:34 10° W visible
18 Feb 5.3 05:22:37 10° SSE 05:28:28 44° E 05:34:26 10° NNE visible
18 Feb 5.9 17:58:28 10° NNW 18:04:13 36° W 18:09:58 10° SSW visible
19 Feb 6.9 04:07:53 10° ESE 04:11:15 15° ENE 04:14:37 10° NE visible
19 Feb 4.3 05:49:25 10° S 05:55:38 74° E 06:01:59 10° NNE visible
19 Feb 6.8 18:26:26 10° NNW 18:31:08 22° W 18:35:50 10° SW visible
20 Feb 6.2 04:33:03 10° SE 04:38:01 26° E 04:43:04 10° NNE visible
20 Feb 4.0 06:16:46 10° SSW 06:23:00 69° WNW 06:29:22 10° N visible
20 Feb 7.2 18:55:17 10° NW 18:57:51 13° WNW 19:00:27 10° W visible
